IRIDIUM 33 DEB, 35797

Orbit data source: Space-Track

IRIDIUM 33 DEB, 35797 is space debris in LEO originally from a launch on Sun, 14 Sep 1997 UTC launched from the Tyuratam Missile And Space Complex (TTMTR). The debris from Iridium 33, an American commercial communications satellite, has been tracked extensively since its accidental collision with the defunct Russian satellite Cosmos 2251 in 2009. This event, occurring at high speed in low Earth orbit (LEO), generated thousands of pieces of space debris, significantly increasing the risk of further collisions. The Iridium 33 debris cloud has impacted space traffic management and orbital debris mitigation strategies, making it a subject of ongoing study in space situational awareness.

Loading next visibility...
Identifier
35797, 1997-051SF
Orbit
LEO
Country
Flag of USUS
Related business
Manufacturer
Unknown
Mission
Spacecraft
Bus & Motor
Unknown
Mass
Unknown
Launch date (UTC)
1997-09-14 (28 years ago)
Launch vehicle
Unknown
Launch site
Tyuratam Missile And Space Complex (TTMTR)
Object type
Payload
Rocket body
Debris
Shape & HBR
Unknown shape, 0.1 m
Radar Cross Section
Small (<0.1 m²)

Expand to show TLE details & history
Last TLE update: 2 days ago

TLE from 2 days ago
0 IRIDIUM 33 DEB
1 35797U 97051SF  26064.37394508  .00015202  00000-0  17513-2 0  9999
2 35797  86.3327 291.9267 0009999 227.1646 132.8739 14.85589234885667
Epoch: 2026-03-05T08:58Z
TLE epoch observation values (Epoch: 2026-03-05T08:58:28.854Z)
Latitude
-0.00003°
Longitude
-5.81875°
Altitude
619.62 km
Speed
7.546 km/s
True Right ascension
19h 27m 42s
True Declination
0° 00' 00"
Sunlit
Object was in daylight at epoch
Visualization orbit readout
Latitude
Unknown
Longitude
Unknown
Altitude
Unknown
Speed
Unknown
Apparent Right ascension
Unknown
Apparent Declination
Unknown
Sunlit
N/A
Visualization observer readout
Local Sidereal Time
07:06:49
Azimuth
Unknown
Elevation
Unknown
Doppler factor
Unknown
Orbital elements
Apogee altitude
615.617 km
Perigee altitude
601.645 km
Semi-major axis
6,986.768 km
Eccentricity
0.001
Inclination
86.3327°
RAAN
291.9267°
Arg. of periapsis
227.1646°
True anomaly
132.9578°
Mean anomaly
132.8739°
Eccentric anomaly
132.91586°
Mean motion
3.71645 °/min
Orbital period
96.87 mins
BSTAR
0.0017513
Loading maneuver chart data...
Computing Atmospheric mass density...
Loading historical data...
Loading historical data...
Loading historical data...
Loading historical data...
Loading historical data...
Loading historical data...
Loading historical data...

Documentation

Showing up to 5 results
|